SCP
0 0 0 0 0 0 0 0 0 0 0 0 0 0 0 0 0 0 0 0 0 0 0 0 0 0 0 0 0 0 0 0 0 0 0 0 0 0 0 0 0 0 0 0
0 0 0 0 0 0 0 0 0 0 0 0 0 0 0 0 0 0 0 0 0 0 0 0 0 0 0 0 0 0 0 0 0 0 0 0 0 0 0 0 0 0 0 0
0 0 0 0 0 0 0 0 0 0 0 0 0 0 0 0 0 0 0 0 0 0 0 0 0 0 0 0 0 0 0 0 0 0 0 0 0 0 0 0 0 0 0 0
0 0 0 0 0 0 0 0 0 0 0 0 0 0 0 0 0 0 0 0 0 0 0 0 0 0 0 0 0 0 0 0 0 0 0 0 0 0 0 0 0 0 0 0
0 0 0 0 0 0 0 0 0 0 0 0 0 0 -0 0 0 0 0 0 0 0 0 0 0 0 0 0 0 0 0 0 0 0 0 0 0 0 0 0 0 0 0 0
0 0 0 0 0 0 0 0 0 0 0 0 0 0 0 0 0 0 0 0 0 0 0 0 0 0 0 0 0 0 0 0 0 0 0 0 0 0 0 0 0 0 0 0
0 0 0 0 0 0 0 0 0 0 0 0 0 0 0 0 0 0 0 0 0 0 0 0 0 0 0 0 0 0 0 0 0 0 0 0 0 0 0 0 0 0 0 0
0 0 0 0 0 0 0 0 0 0 0 0 0 0 0 0 0 0 0 0 0 0 0 0 0 0 0 0 0 0 0 0 0 0 0 0 0 0 0 0 0 0 0 0
0 0 0 0 0 0 0 0 0 0 0 0 0 0 0 0 0 0 0 0 0 0 0 0 0 0 0 0 0 0 0 0 0 0 0 0 0 0 0 0 0 0 0 0
0 0 0 0 0 0 0 0 0 0 0 0 0 0 0 0 0 0 0 0 0 0 0 0 0 0 0 0 0 0 0 0 0 0 0 0 0 0 0 0 0 0 0 0
0 0 0 0 0 0 0 0 0 0 0 0 0 0 0 0 0 0 0 0 0 0 0 0 0 0 0 0 0 0 0 0 0 0 0 0 0 0 0 0 0 0 0 0
0 0 0 0 0 0 0 0 0 0 0 0 0 0 0 0 0 0 0 0 0 0 0 0 0 0 0 0 0 0 0 0 0 0 0 0 0 0 0 0 0 0 0 0
0 0 0 0 0 0 0 0 0 0 0 0 0 0 0 0 0 0 0 0 0 0 0 0 0 0 0 0 0 0 0 0 0 0 0 0 0 0 0 0 0 0 0 0
0 0 0 0 0 0 0 0 0 0 0 0 0 0 0 0 0 0 0 0 0 0 0 0 0 0 0 0 0 0 0 0 0 0 0 0 0 0 0 0 0 0 0 0
0 0 0 0 0 0 0 0 0 0 0 0 0 0 0 0 0 0 0 0 0 0 0 0 0 0 0 0 0 0 0 0 0 0 0 0 0 0 0 0 0 0 0 0
0 0 0 0 0 0 0 0 0 0 0 0 0 0 0 0 0 0 0 0 0 0 0 0 0 0 0 0 0 0 0 0 0 0 0 0 0 0 0 0 0 0 0 0
0 0 0 0 0 0 0 0 0 0 0 0 0 0 0 0 0 0 0 0 0 0 0 0 0 0 0 0 0 0 0 0 0 0 0 0 0 0 0 0 0 0 0 0
0 0 0 0 0 0 0 0 0 0 0 0 0 0 0 0 0 0 0 0 0 0 0 0 0 0 0 0 0 0 0 0 0 0 0 0 0 0 0 0 0 0 0 0
0 0 0 0 0 0 0 0 0 0 0 0 0 0 0 0 0 0 0 0 0 0 0 0 0 0 0 0 0 0 0 0 0 0 0 0 0 0 0 0 0 0 0 0
0 0 0 0 0 0 0 0 0 0 0 0 0 0 0 0 0 0 0 0 0 0 0 0 0 0 0 0 0 0 0 0 0 0 0 0 0 0 0 0 0 0 0 0
0 0 0 0 0 0 0 0 0 0 0 0 0 0 0 0 0 0 0 0 0 0 0 0 0 0 0 0 0 0 0 0 0 0 0 0 0 0 0 0 0 0 0 0
0 0 0 0 0 0 0 0 0 0 0 0 0 0 0 0 0 0 0 0 0 0 0 0 0 0 0 0 0 0 0 0 0 0 0 0 0 0 0 0 0 0 0 0
0 0 0 0 0 0 0 0 0 0 0 0 0 0 0 0 0 0 0 0 0 0 0 0 0 0 0 0 0 0 0 0 0 0 0 0 0 0 0 0 0 0 0 0
0 0 0 0 0 0 0 0 0 0 0 0 0 0 0 0 0 0 0 0 0 0 0 0 0 0 0 0 0 0 0 0 0 0 0 0 0 0 0 0 0 0 0 0
0 0 0 0 0 0 0 0 0 0 0 0 0 0 0 0 0 0 0 0 0 0 0 0 0 0 0 0 0 0 0 0 0 0 0 0 0 0 0 0 0 0 0 0
0 0 0 0 0 0 0 0 0 0 0 0 0 0 0 0 0 0 0 0 0 0 0 0 0 0 0 0 0 0 0 0 0 0 0 0 0 0 0 0 0 0 0 0
Wind_Speed_500mb
7 7 12 13 13 7 12 9 8 4 3 3 8 15 21 33 31 38 42 42 42 42 39 40 40 45 49 52 59 67 68 69 72 76 77 77 74 70 67 60 54 59 51 57
8 10 14 12 12 11 9 8 7 0 5 4 8 20 21 22 28 43 49 47 43 49 48 30 25 26 45 54 59 64 70 73 72 78 76 80 74 74 70 63 59 61 64 54
13 5 22 14 9 13 5 12 7 4 3 5 9 14 13 8 10 22 26 26 21 21 22 18 20 29 34 38 47 61 69 72 73 73 76 80 77 75 76 71 71 66 66 68
7 5 12 10 7 11 10 14 9 8 6 7 5 9 12 9 19 10 6 16 13 12 13 16 13 2 14 24 39 39 54 64 67 72 77 80 83 78 77 74 71 70 66 67
11 18 16 9 13 15 11 12 12 6 8 3 5 2 13 6 13 8 7 15 10 13 14 21 25 23 15 4 10 23 29 49 54 59 69 74 75 73 70 65 70 67 67 66
6 6 9 11 8 5 20 14 14 8 5 4 10 11 9 9 9 6 7 13 11 11 17 21 23 22 20 18 12 2 11 25 40 45 50 60 70 69 67 69 68 68 71 64
4 4 6 12 14 9 4 13 5 4 3 10 3 3 13 11 9 7 4 11 18 20 23 25 25 26 25 23 22 18 11 4 17 28 34 41 53 61 65 67 66 67 68 69
16 9 16 8 12 18 13 13 13 15 9 5 4 13 11 4 6 13 19 22 27 31 31 31 32 30 29 28 25 24 20 14 7 5 14 22 29 40 49 53 58 62 65 62
13 11 1 4 6 18 12 12 10 15 5 6 9 12 13 5 9 13 24 29 33 38 36 35 31 28 27 26 25 22 19 16 11 6 5 11 20 27 33 37 44 45 49 52
16 7 3 5 6 3 13 18 8 4 8 7 8 9 10 9 14 11 13 31 33 36 35 37 30 27 26 24 23 22 19 16 14 12 8 9 15 22 28 33 37 41 43 47
12 9 1 8 14 18 7 7 6 10 11 12 4 12 12 15 16 18 22 28 30 36 32 30 26 23 20 19 19 21 21 21 17 12 12 14 16 19 23 26 32 36 40 42
14 11 9 18 7 7 3 15 15 13 13 2 6 12 5 18 28 27 28 26 27 28 25 22 19 15 12 14 12 13 13 15 18 18 15 12 11 13 16 20 23 25 30 37
16 7 6 9 6 3 8 6 7 10 6 14 11 14 6 18 18 19 31 26 23 21 19 16 14 12 16 15 14 13 12 14 14 13 10 9 10 9 8 8 11 17 24 29
37 6 30 34 15 17 12 15 15 16 9 18 22 9 9 14 15 17 26 27 24 22 22 22 22 23 21 19 17 15 14 14 14 16 14 12 12 12 13 12 11 13 18 21
15 16 8 2 7 13 13 19 27 26 43 22 34 21 33 35 25 37 38 35 32 30 29 28 29 28 26 24 23 23 23 23 24 22 20 17 16 15 17 18 20 23 25 26
7 4 6 6 4 9 9 21 40 48 45 32 10 17 4 33 42 38 44 44 41 36 34 32 31 27 24 22 21 22 24 26 27 26 26 25 23 24 23 23 24 25 27 32
13 12 7 13 12 10 11 37 29 30 31 36 35 27 13 9 32 52 52 47 44 39 34 32 27 22 19 17 18 19 23 25 25 27 26 26 26 27 28 30 30 31 32 34
11 13 6 6 16 17 14 3 18 37 15 15 6 16 40 32 43 51 49 51 45 39 34 28 22 16 13 14 15 18 19 21 23 25 26 27 28 29 30 32 34 35 38 41
11 9 7 9 13 7 8 10 16 21 35 24 25 12 20 47 39 23 41 43 43 37 32 26 20 14 12 11 12 15 16 20 24 28 30 32 33 35 37 40 43 46 49 51
11 12 6 4 7 18 11 3 15 13 21 22 44 30 38 48 17 11 56 49 43 35 28 23 18 13 8 4 9 14 20 26 29 32 36 40 43 45 46 48 50 52 55 55
13 8 15 10 6 13 10 12 19 14 11 10 49 58 66 23 10 52 59 49 38 33 28 23 16 8 1 9 15 21 27 33 37 38 40 42 46 50 53 54 55 55 55 55
16 15 7 8 4 16 19 11 18 7 5 17 42 58 59 35 42 71 58 47 39 33 26 17 9 5 10 16 23 30 35 38 42 45 48 50 52 55 59 60 59 59 60 61
10 11 12 15 13 6 45 7 29 14 20 25 44 58 69 59 69 64 57 48 38 28 18 10 6 13 20 27 32 35 38 41 42 44 47 49 50 53 58 64 65 65 63 64
7 7 7 6 8 8 35 17 28 18 29 35 44 65 71 70 67 62 54 45 35 25 15 9 13 19 24 30 35 36 38 39 42 44 49 52 56 57 58 59 62 66 65 64
6 17 12 7 1 3 18 48 30 34 34 43 53 65 66 67 60 55 48 37 25 14 9 12 18 22 24 27 33 36 39 43 47 51 54 55 57 58 60 58 60 59 59 60
14 12 12 13 29 21 21 61 48 45 51 55 65 62 58 57 57 47 37 26 17 12 12 16 19 22 24 28 35 40 43 45 48 47 49 53 56 54 54 57 57 53 55 52
Wind_Direction_500mb
131 128 197 176 188 134 120 121 158 241 59 207 240 274 269 281 284 275 266 266 269 271 275 281 277 258 250 243 240 240 239 238 235 235 236 237 237 239 240 244 238 236 238 233
69 221 203 122 127 114 123 130 206 357 39 168 355 285 273 265 259 265 272 270 276 283 287 288 273 256 242 242 242 240 239 237 236 236 238 241 243 244 249 250 246 239 238 241
156 241 152 131 144 130 122 153 178 170 54 49 329 294 315 315 282 279 277 290 292 296 305 300 273 246 239 239 240 240 238 238 238 238 238 240 242 246 248 248 247 246 243 243
196 110 132 108 165 125 178 199 141 140 105 234 4 279 299 325 306 275 32 38 47 57 47 46 46 277 234 250 239 243 236 235 238 238 239 238 240 238 245 244 248 250 248 251
222 158 150 164 192 163 208 125 130 107 108 71 334 45 273 356 274 293 108 17 43 32 63 61 60 58 51 1 249 244 245 233 235 239 240 242 238 243 244 247 246 251 251 249
146 169 156 165 64 129 151 88 56 58 95 297 212 168 262 204 218 172 341 27 53 74 83 75 69 63 56 51 56 95 233 229 231 236 239 242 242 239 240 244 247 247 254 259
61 191 177 141 91 33 89 103 39 350 352 229 15 145 247 237 234 218 307 61 77 94 95 88 79 69 64 58 54 56 66 180 222 229 234 240 240 241 244 247 251 252 256 258
158 228 167 183 181 164 194 161 160 191 198 232 78 228 248 103 97 140 134 102 93 97 95 87 75 69 64 59 54 54 54 55 69 198 227 238 242 243 249 254 258 260 265 269
153 238 208 89 158 149 196 207 154 104 27 62 210 285 293 92 108 136 127 106 100 99 97 93 80 67 56 47 38 39 43 43 39 16 302 242 231 236 244 251 256 263 269 272
199 124 3 152 122 48 176 151 82 11 136 235 263 268 230 197 180 179 147 122 109 102 91 83 79 70 60 51 43 37 34 27 18 356 322 281 269 260 254 251 254 255 258 259
144 114 298 126 216 169 137 176 80 125 159 175 209 250 225 182 166 165 144 121 110 97 93 89 88 83 74 66 55 45 37 28 16 359 342 320 295 273 268 270 269 259 259 260
181 126 167 201 248 235 199 189 160 177 213 226 147 259 319 151 160 149 136 127 111 106 103 98 92 87 85 71 59 45 33 23 16 7 358 347 336 314 289 276 274 272 264 261
172 196 73 352 331 340 208 178 120 105 88 197 144 250 42 130 138 135 143 141 130 121 119 111 114 98 74 63 52 37 25 20 15 11 8 8 2 357 333 316 306 291 281 278
164 161 211 219 232 141 192 189 190 186 178 211 223 142 206 208 180 161 152 150 146 139 128 119 108 93 84 75 66 59 47 35 21 15 9 351 329 328 338 341 326 295 285 287
165 207 193 82 156 171 177 179 180 201 222 190 231 205 196 198 191 178 166 160 155 146 136 124 112 100 91 83 74 66 59 50 42 37 35 33 19 358 343 332 323 316 309 303
170 199 116 204 193 185 189 204 200 210 222 229 119 234 170 199 172 167 173 170 163 152 142 130 121 113 102 86 70 58 50 43 33 27 23 17 7 0 353 345 335 325 316 308
144 131 119 246 142 111 267 215 200 214 215 213 219 211 152 144 166 178 178 177 166 158 144 136 129 114 97 80 63 49 38 29 18 13 8 5 1 355 348 344 336 329 323 317
138 153 150 170 136 209 254 22 198 211 211 194 100 158 174 180 182 185 184 171 163 156 149 143 135 117 89 68 54 41 31 20 12 3 357 355 354 352 350 346 342 340 337 332
137 146 151 178 207 310 254 198 159 178 238 203 201 147 146 147 140 161 174 171 163 160 155 150 143 124 91 67 46 28 8 359 353 349 347 345 343 341 338 335 333 332 330 329
169 166 138 168 180 206 236 228 166 125 264 187 177 170 156 148 171 194 174 171 166 162 156 150 142 132 112 46 3 348 340 336 334 332 333 333 331 330 328 326 324 324 323 323
157 170 176 176 210 285 220 173 158 161 245 161 184 173 164 177 199 169 167 167 165 159 155 151 149 162 284 327 323 319 317 316 318 319 318 318 318 318 317 317 317 315 314 313
166 168 181 124 144 268 158 118 172 192 114 167 177 178 167 168 150 160 164 164 163 160 156 159 175 243 293 299 301 302 304 308 309 308 308 308 308 309 307 307 307 307 307 307
196 187 174 181 202 197 186 200 206 190 167 178 179 180 178 156 155 158 159 161 162 163 167 182 244 286 295 298 300 304 308 308 309 310 310 309 308 306 305 303 302 302 302 302
264 200 164 109 205 209 201 204 197 204 202 190 187 177 175 161 159 159 161 163 166 170 183 226 272 288 296 300 303 309 311 311 311 311 308 307 306 304 302 302 303 301 301 301
191 144 165 278 150 113 221 213 201 198 191 174 173 176 172 165 161 162 161 164 170 186 234 273 286 292 297 305 309 310 309 309 309 309 308 308 308 308 305 303 303 302 300 299
190 173 178 216 186 184 211 205 210 195 181 176 169 165 169 170 164 164 164 171 189 218 261 280 288 295 302 304 303 306 308 311 311 311 311 313 314 314 311 310 307 303 301 298
Wind_Speed_850mb
7 7 12 13 13 7 12 9 8 4 3 3 8 15 21 33 31 38 42 42 42 42 39 40 40 45 49 52 59 67 68 69 72 76 77 77 74 70 67 60 54 59 51 57
8 10 14 12 12 11 9 8 7 0 5 4 8 20 21 22 28 43 49 47 43 49 48 30 25 26 45 54 59 64 70 73 72 78 76 80 74 74 70 63 59 61 64 54
13 5 22 14 9 13 5 12 7 4 3 5 9 14 13 8 10 22 26 26 21 21 22 18 20 29 34 38 47 61 69 72 73 73 76 80 77 75 76 71 71 66 66 68
7 5 12 10 7 11 10 14 9 8 6 7 5 9 12 9 19 10 6 16 13 12 13 16 13 2 14 24 39 39 54 64 67 72 77 80 83 78 77 74 71 70 66 67
11 18 16 9 13 15 11 12 12 6 8 3 5 2 13 6 13 8 7 15 10 13 14 21 25 23 15 4 10 23 29 49 54 59 69 74 75 73 70 65 70 67 67 66
6 6 9 11 8 5 20 14 14 8 5 4 10 11 9 9 9 6 7 13 11 11 17 21 23 22 20 18 12 2 11 25 40 45 50 60 70 69 67 69 68 68 71 64
4 4 6 12 14 9 4 13 5 4 3 10 3 3 13 11 9 7 4 11 18 20 23 25 25 26 25 23 22 18 11 4 17 28 34 41 53 61 65 67 66 67 68 69
16 9 16 8 12 18 13 13 13 15 9 5 4 13 11 4 6 13 19 22 27 31 31 31 32 30 29 28 25 24 20 14 7 5 14 22 29 40 49 53 58 62 65 62
13 11 1 4 6 18 12 12 10 15 5 6 9 12 13 5 9 13 24 29 33 38 36 35 31 28 27 26 25 22 19 16 11 6 5 11 20 27 33 37 44 45 49 52
16 7 3 5 6 3 13 18 8 4 8 7 8 9 10 9 14 11 13 31 33 36 35 37 30 27 26 24 23 22 19 16 14 12 8 9 15 22 28 33 37 41 43 47
12 9 1 8 14 18 7 7 6 10 11 12 4 12 12 15 16 18 22 28 30 36 32 30 26 23 20 19 19 21 21 21 17 12 12 14 16 19 23 26 32 36 40 42
14 11 9 18 7 7 3 15 15 13 13 2 6 12 5 18 28 27 28 26 27 28 25 22 19 15 12 14 12 13 13 15 18 18 15 12 11 13 16 20 23 25 30 37
16 7 6 9 6 3 8 6 7 10 6 14 11 14 6 18 18 19 31 26 23 21 19 16 14 12 16 15 14 13 12 14 14 13 10 9 10 9 8 8 11 17 24 29
37 6 30 34 15 17 12 15 15 16 9 18 22 9 9 14 15 17 26 27 24 22 22 22 22 23 21 19 17 15 14 14 14 16 14 12 12 12 13 12 11 13 18 21
15 16 8 2 7 13 13 19 27 26 43 22 34 21 33 35 25 37 38 35 32 30 29 28 29 28 26 24 23 23 23 23 24 22 20 17 16 15 17 18 20 23 25 26
7 4 6 6 4 9 9 21 40 48 45 32 10 17 4 33 42 38 44 44 41 36 34 32 31 27 24 22 21 22 24 26 27 26 26 25 23 24 23 23 24 25 27 32
13 12 7 13 12 10 11 37 29 30 31 36 35 27 13 9 32 52 52 47 44 39 34 32 27 22 19 17 18 19 23 25 25 27 26 26 26 27 28 30 30 31 32 34
11 13 6 6 16 17 14 3 18 37 15 15 6 16 40 32 43 51 49 51 45 39 34 28 22 16 13 14 15 18 19 21 23 25 26 27 28 29 30 32 34 35 38 41
11 9 7 9 13 7 8 10 16 21 35 24 25 12 20 47 39 23 41 43 43 37 32 26 20 14 12 11 12 15 16 20 24 28 30 32 33 35 37 40 43 46 49 51
11 12 6 4 7 18 11 3 15 13 21 22 44 30 38 48 17 11 56 49 43 35 28 23 18 13 8 4 9 14 20 26 29 32 36 40 43 45 46 48 50 52 55 55
13 8 15 10 6 13 10 12 19 14 11 10 49 58 66 23 10 52 59 49 38 33 28 23 16 8 1 9 15 21 27 33 37 38 40 42 46 50 53 54 55 55 55 55
16 15 7 8 4 16 19 11 18 7 5 17 42 58 59 35 42 71 58 47 39 33 26 17 9 5 10 16 23 30 35 38 42 45 48 50 52 55 59 60 59 59 60 61
10 11 12 15 13 6 45 7 29 14 20 25 44 58 69 59 69 64 57 48 38 28 18 10 6 13 20 27 32 35 38 41 42 44 47 49 50 53 58 64 65 65 63 64
7 7 7 6 8 8 35 17 28 18 29 35 44 65 71 70 67 62 54 45 35 25 15 9 13 19 24 30 35 36 38 39 42 44 49 52 56 57 58 59 62 66 65 64
6 17 12 7 1 3 18 48 30 34 34 43 53 65 66 67 60 55 48 37 25 14 9 12 18 22 24 27 33 36 39 43 47 51 54 55 57 58 60 58 60 59 59 60
14 12 12 13 29 21 21 61 48 45 51 55 65 62 58 57 57 47 37 26 17 12 12 16 19 22 24 28 35 40 43 45 48 47 49 53 56 54 54 57 57 53 55 52
Wind_Direction_850mb
131 128 197 176 188 134 120 121 158 241 59 207 240 274 269 281 284 275 266 266 269 271 275 281 277 258 250 243 240 240 239 238 235 235 236 237 237 239 240 244 238 236 238 233
69 221 203 122 127 114 123 130 206 357 39 168 355 285 273 265 259 265 272 270 276 283 287 288 273 256 242 242 242 240 239 237 236 236 238 241 243 244 249 250 246 239 238 241
156 241 152 131 144 130 122 153 178 170 54 49 329 294 315 315 282 279 277 290 292 296 305 300 273 246 239 239 240 240 238 238 238 238 238 240 242 246 248 248 247 246 243 243
196 110 132 108 165 125 178 199 141 140 105 234 4 279 299 325 306 275 32 38 47 57 47 46 46 277 234 250 239 243 236 235 238 238 239 238 240 238 245 244 248 250 248 251
222 158 150 164 192 163 208 125 130 107 108 71 334 45 273 356 274 293 108 17 43 32 63 61 60 58 51 1 249 244 245 233 235 239 240 242 238 243 244 247 246 251 251 249
146 169 156 165 64 129 151 88 56 58 95 297 212 168 262 204 218 172 341 27 53 74 83 75 69 63 56 51 56 95 233 229 231 236 239 242 242 239 240 244 247 247 254 259
61 191 177 141 91 33 89 103 39 350 352 229 15 145 247 237 234 218 307 61 77 94 95 88 79 69 64 58 54 56 66 180 222 229 234 240 240 241 244 247 251 252 256 258
158 228 167 183 181 164 194 161 160 191 198 232 78 228 248 103 97 140 134 102 93 97 95 87 75 69 64 59 54 54 54 55 69 198 227 238 242 243 249 254 258 260 265 269
153 238 208 89 158 149 196 207 154 104 27 62 210 285 293 92 108 136 127 106 100 99 97 93 80 67 56 47 38 39 43 43 39 16 302 242 231 236 244 251 256 263 269 272
199 124 3 152 122 48 176 151 82 11 136 235 263 268 230 197 180 179 147 122 109 102 91 83 79 70 60 51 43 37 34 27 18 356 322 281 269 260 254 251 254 255 258 259
144 114 298 126 216 169 137 176 80 125 159 175 209 250 225 182 166 165 144 121 110 97 93 89 88 83 74 66 55 45 37 28 16 359 342 320 295 273 268 270 269 259 259 260
181 126 167 201 248 235 199 189 160 177 213 226 147 259 319 151 160 149 136 127 111 106 103 98 92 87 85 71 59 45 33 23 16 7 358 347 336 314 289 276 274 272 264 261
172 196 73 352 331 340 208 178 120 105 88 197 144 250 42 130 138 135 143 141 130 121 119 111 114 98 74 63 52 37 25 20 15 11 8 8 2 357 333 316 306 291 281 278
164 161 211 219 232 141 192 189 190 186 178 211 223 142 206 208 180 161 152 150 146 139 128 119 108 93 84 75 66 59 47 35 21 15 9 351 329 328 338 341 326 295 285 287
165 207 193 82 156 171 177 179 180 201 222 190 231 205 196 198 191 178 166 160 155 146 136 124 112 100 91 83 74 66 59 50 42 37 35 33 19 358 343 332 323 316 309 303
170 199 116 204 193 185 189 204 200 210 222 229 119 234 170 199 172 167 173 170 163 152 142 130 121 113 102 86 70 58 50 43 33 27 23 17 7 0 353 345 335 325 316 308
144 131 119 246 142 111 267 215 200 214 215 213 219 211 152 144 166 178 178 177 166 158 144 136 129 114 97 80 63 49 38 29 18 13 8 5 1 355 348 344 336 329 323 317
138 153 150 170 136 209 254 22 198 211 211 194 100 158 174 180 182 185 184 171 163 156 149 143 135 117 89 68 54 41 31 20 12 3 357 355 354 352 350 346 342 340 337 332
137 146 151 178 207 310 254 198 159 178 238 203 201 147 146 147 140 161 174 171 163 160 155 150 143 124 91 67 46 28 8 359 353 349 347 345 343 341 338 335 333 332 330 329
169 166 138 168 180 206 236 228 166 125 264 187 177 170 156 148 171 194 174 171 166 162 156 150 142 132 112 46 3 348 340 336 334 332 333 333 331 330 328 326 324 324 323 323
157 170 176 176 210 285 220 173 158 161 245 161 184 173 164 177 199 169 167 167 165 159 155 151 149 162 284 327 323 319 317 316 318 319 318 318 318 318 317 317 317 315 314 313
166 168 181 124 144 268 158 118 172 192 114 167 177 178 167 168 150 160 164 164 163 160 156 159 175 243 293 299 301 302 304 308 309 308 308 308 308 309 307 307 307 307 307 307
196 187 174 181 202 197 186 200 206 190 167 178 179 180 178 156 155 158 159 161 162 163 167 182 244 286 295 298 300 304 308 308 309 310 310 309 308 306 305 303 302 302 302 302
264 200 164 109 205 209 201 204 197 204 202 190 187 177 175 161 159 159 161 163 166 170 183 226 272 288 296 300 303 309 311 311 311 311 308 307 306 304 302 302 303 301 301 301
191 144 165 278 150 113 221 213 201 198 191 174 173 176 172 165 161 162 161 164 170 186 234 273 286 292 297 305 309 310 309 309 309 309 308 308 308 308 305 303 303 302 300 299
190 173 178 216 186 184 211 205 210 195 181 176 169 165 169 170 164 164 164 171 189 218 261 280 288 295 302 304 303 306 308 311 311 311 311 313 314 314 311 310 307 303 301 298